Gunnison, CO

2:53 AM MST on November 14, 2019 (GMT -0700)
Gunnison County

Weather History for KGUC - September, 2019

Change the Weather History Date:

Sunday, September 15, 2019

  Actual Average Record
Temperature  
Mean Temperature 52 °F -  
Max Temperature 69 °F 66 °F 81 °F (2018)
Min Temperature 36 °F 34 °F 24 °F (2005)
Degree Days  
Heating Degree Days 12    
Growing Degree Days 2 (Base 50)    
Moisture  
Dew Point 32 °F    
Average Humidity 47    
Maximum Humidity 73    
Minimum Humidity 24    
Precipitation  
Precipitation 0.00 in - - ()
Sea Level Pressure  
Sea Level Pressure 30.19 in    
Wind  
Wind Speed 3 mph ()    
Max Wind Speed 17 mph    
Max Gust Speed 22 mph    
Visibility 10.0 miles    
Events      
Averages and records for this station are not official NWS values.
T = Trace of Precipitation, MM = Missing Value Source: Averaged Metar Reports

Daily Weather History Graph

Daily Weather History Graph

Search for Another Location

Airport or City:

Astronomy

Sep. 15, 2019 Rise Set
Actual Time 6:49 AM MDT 7:16 PM MDT
Civil Twilight 6:22 AM MDT 7:42 PM MDT
Nautical Twilight 5:51 AM MDT 8:13 PM MDT
Astronomical Twilight 5:19 AM MDT 8:45 PM MDT
Moon 8:25 PM MDT (9/15) 8:01 AM MDT (9/15)
Length of Visible Light 13h 20m
Length of Day
12h 26m
Full, 98% of the Moon is Illuminated
Sep 15
Full
Sep 21
Last Quarter
Sep 28
New
Oct 5
First Quarter
Oct 13
Full

Hourly Weather History & Observations

Time (MDT) Temp. Windchill Dew Point Humidity Pressure Visibility Wind Dir Wind Speed Gust Speed Precip Events Conditions
12:56 AM 43.0 °F - 30.9 °F 62% 30.24 in 10.0 mi Calm Calm - N/A   Clear
1:56 AM 42.1 °F 40.2 °F 28.0 °F 58% 30.24 in 10.0 mi SSE 3.5 mph - N/A   Clear
2:56 AM 42.1 °F - 30.0 °F 62% 30.22 in 10.0 mi Calm Calm - N/A   Clear
3:56 AM 42.1 °F - 30.0 °F 62% 30.21 in 10.0 mi Calm Calm - N/A   Clear
4:56 AM 39.9 °F - 26.1 °F 58% 30.22 in 10.0 mi Calm Calm - N/A   Clear
5:56 AM 36.0 °F - 28.0 °F 73% 30.25 in 10.0 mi Calm Calm - N/A   Clear
6:56 AM 36.0 °F - 27.0 °F 70% 30.27 in 10.0 mi Calm Calm - N/A   Clear
7:56 AM 39.9 °F - 21.9 °F 49% 30.30 in 10.0 mi Calm Calm - N/A   Clear
8:56 AM 46.0 °F - 25.0 °F 44% 30.30 in 10.0 mi Calm Calm - N/A   Clear
9:56 AM 53.1 °F - 26.1 °F 35% 30.27 in 10.0 mi Calm Calm - N/A   Clear
10:56 AM 61.0 °F - 27.0 °F 27% 30.22 in 10.0 mi Calm Calm - N/A   Clear
11:56 AM 64.9 °F - 28.9 °F 26% 30.18 in 10.0 mi West 3.5 mph - N/A   Clear
12:56 PM 66.0 °F - 30.0 °F 26% 30.16 in 10.0 mi WSW 5.8 mph - N/A   Clear
1:56 PM 68.0 °F - 30.0 °F 24% 30.13 in 10.0 mi WSW 4.6 mph - N/A   Clear
2:56 PM 68.0 °F - 30.9 °F 25% 30.11 in 10.0 mi WSW 10.4 mph - N/A   Clear
3:56 PM 69.1 °F - 30.9 °F 24% 30.09 in 10.0 mi SW 11.5 mph 19.6 mph N/A   Partly Cloudy
4:56 PM 66.0 °F - 33.1 °F 29% 30.13 in 10.0 mi WSW 8.1 mph - N/A   Scattered Clouds
6:56 PM 64.0 °F - 37.0 °F 37% 30.17 in 10.0 mi ESE 17.3 mph 21.9 mph N/A   Overcast
7:56 PM 61.0 °F - 41.0 °F 48% 30.16 in 10.0 mi East 15.0 mph - N/A   Overcast
8:56 PM 60.1 °F - 42.1 °F 51% 30.17 in 10.0 mi East 10.4 mph - 0.00 in   Overcast
9:56 PM 57.0 °F - 45.0 °F 64% 30.14 in 10.0 mi NE 8.1 mph - 0.00 in   Overcast
10:56 PM 55.9 °F - 46.0 °F 69% 30.09 in 10.0 mi NNE 6.9 mph - 0.00 in   Overcast
11:56 PM 55.9 °F - 46.0 °F 69% 30.07 in 10.0 mi North 3.5 mph - N/A   Mostly Cloudy